Flag for Brazil Weather past 2 weeks in Passo Fundo, Rio Grande do Sul, Brazil

Now
72 °F

Sunny.


Feels Like: 76 °F
Forecast: 52 / 75 °F
Wind: 6 mph from Northeast

Location: Porto Alegre Aero-Porto

Current Time: Oct 22, 2014 at 11:13:33 AM

Latest Report: Oct 22, 2014 at 11:00 AM


Visibility: 10 mi

Pressure: 30.18 "Hg

Humidity: 61%

Dew point: 57 °F

Location of Passo FundoLocation

Historic Weather in Passo Fundo — Graph

°F

Passo Fundo temperature yesterday

Maximum temperature yesterday: 75 °F (at 3:00 PM)
Minimum temperature yesterday: 57 °F (at 6:00 AM)
Average temperature yesterday: 66 °F

Past Weeks' High & Low Weather Summary

 TemperatureHumidityPressure
High86 °F (Oct 8, 2:00 PM)100% (Oct 12, 3:00 AM)30.21 "Hg (Oct 12, 3:00 AM)
Low32 °F (Oct 16, 2:00 PM)28% (Oct 19, 5:00 AM)29.65 "Hg (Oct 19, 4:00 AM)
Average69 °F79%29.95 "Hg
* Reported Oct 7 9:00 AM — Oct 22 10:00 AM, Passo Fundo, Weather by CustomWeather, © 2014

Note: Actual official high and low records may vary slightly from our data, if they occured in-between our weather recording intervals... More about our weather records

Advertising

Passo Fundo weather history for previous 24 hours

 ConditionsComfort  
Time TempWeatherWind HumidityBarometerVisibility
10:00 AM
Oct 22
68 °FSunny.6 mph73%30.18 "Hg10 mi
9:00 AM64 °FSunny.5 mph83%30.18 "Hg10 mi
8:00 AM63 °FSunny.5 mph88%30.15 "Hg10 mi
7:00 AM57 °FSunny.2 mph94%30.15 "Hg10 mi
6:00 AM59 °FClear.2 mph94%30.12 "Hg10 mi
5:00 AM59 °FClear.5 mph88%30.12 "Hg10 mi
4:00 AM61 °FClear.7 mph88%30.12 "Hg10 mi
3:00 AM61 °FClear.7 mph88%30.12 "Hg10 mi
2:00 AM61 °FClear.8 mph88%30.15 "Hg10 mi
1:00 AM63 °FClear.10 mph83%30.15 "Hg10 mi
12:00 AM63 °FClear.10 mph77%30.18 "Hg10 mi
11:00 PM
Oct 21
63 °FClear.9 mph77%30.18 "Hg10 mi
10:00 PM64 °FClear.12 mph73%30.18 "Hg10 mi
9:00 PM64 °FClear.10 mph73%30.15 "Hg10 mi
8:00 PM68 °FClear.12 mph60%30.15 "Hg10 mi
7:00 PM70 °FSunny.13 mph60%30.15 "Hg10 mi
6:00 PM73 °FSunny.10 mph50%30.15 "Hg10 mi
5:00 PM75 °FSunny.8 mph47%30.12 "Hg10 mi
4:00 PM75 °FSunny.10 mph47%30.12 "Hg10 mi
3:00 PM75 °FSunny.8 mph44%30.15 "Hg10 mi
2:00 PM73 °FPassing clouds.10 mph50%30.18 "HgN/A
1:00 PM72 °FScattered clouds.8 mph50%30.18 "HgN/A
12:00 PM72 °FPartly sunny.9 mph57%30.21 "HgN/A
11:00 AM68 °FPartly sunny.13 mph69%30.21 "HgN/A
Weather by CustomWeather, © 2014

See weather overviewHow to use our weather pages